User: anonymous   Login
Location: Unspecified
(0.0000°N, 0.0000°E)
Time: 21:46:17
(UTC+01:00)
Language:

Centaur D-1AR AC-41 - Orbit

View from above orbital plane
View from above orbital plane
View from above satellite
View from above satellite

Ground track
Ground track

The orbit data is extracted from the following two-line orbital elements,

1 10976U 78068B   14304.39096225 -.00000067  00000-0  22724-2 0  5090
2 10976 021.3228 174.6827 7166100 028.6220 255.7351 02.22292630294909
Epoch (UTC): 31 October 2014 09:22:59
Eccentricity: 0.7166100
inclination: 21.3228°
perigee height: 650 km
apogee height: 36193 km
right ascension of ascending node: 174.6827°
argument of perigee: 28.6220°
revolutions per day: 2.22292630
mean anomaly at epoch: 255.7351°
orbit number at epoch: 29490

The dashed part of the orbit path shows where the satellite is in the earth's shadow,  

DLR